Weather History for Lake Charles Regional, LA

Change the Weather History Date:

Thursday, March 27, 2014

  Actual Average Record
Temperature  
Mean Temperature 62 °F 64 °F  
Max Temperature 71 °F 74 °F 90 °F (1910)
Min Temperature 52 °F 53 °F 28 °F (1913)
Degree Days  
Heating Degree Days 3 3  
Month to date heating degree days 239 150  
Since 1 July heating degree days 1890 1432  
Cooling Degree Days 0 2  
Month to date cooling degree days 7 41  
Year to date cooling degree days 22 64  
Growing Degree Days 10 (Base 50)    
Moisture  
Dew Point 58 °F    
Average Humidity 89    
Maximum Humidity 100    
Minimum Humidity 78    
Precipitation  
Precipitation 0.11 in 0.12 in 4.75 in (1951)
Month to date precipitation 1.93 3.20  
Year to date precipitation 8.72 11.89  
Snow  
Snow 0.00 in 0.00 in 0.00 in ()
Month to date snowfall 0.0 0.0  
Since 1 July snowfall 0.1 0.1  
Snow Depth 0.00 in    
Sea Level Pressure  
Sea Level Pressure 29.97 in    
Wind  
Wind Speed 14 mph (SE)    
Max Wind Speed 29 mph    
Max Gust Speed 39 mph    
Visibility 9 miles    
Events Rain , Thunderstorm    
T = Trace of Precipitation, MM = Missing Value Source: NWS Daily Summary

Daily Weather History Graph

Daily Weather History Graph

Search for Another Location

Airport:

Trip Planner

Search our weather history database for the weather conditions in past years. The results will help you decide how hot, cold, wet, or windy it might be!

Date:

Astronomy

Mar. 27, 2014 Rise Set
Actual Time 7:08 AM CDT 7:28 PM CDT
Civil Twilight 6:44 AM CDT 7:52 PM CDT
Nautical Twilight 6:16 AM CDT 8:20 PM CDT
Astronomical Twilight 5:47 AM CDT 8:49 PM CDT
Moon 4:45 AM CDT (3/27) 4:29 PM CDT (3/27)
Length of Visible Light 13h 08m
Length of Day
12h 20m
Waning Crescent, 13% of the Moon is Illuminated
Mar 27
Waning Crescent
Mar 30
New
Apr 7
First Quarter
Apr 15
Full
Apr 22
Last Quarter

Hourly Weather History & Observations

Time (CDT) Temp. Dew Point Humidity Pressure Visibility Wind Dir Wind Speed Gust Speed Precip Events Conditions
12:18 AM 52.0 °F 48.0 °F 86% 30.10 in 10.0 mi East 8.1 mph - N/A   Overcast
12:34 AM 52.0 °F 48.0 °F 86% 30.10 in 10.0 mi East 9.2 mph - N/A   Overcast
12:44 AM 52.0 °F 48.9 °F 89% 30.10 in 10.0 mi East 9.2 mph - N/A   Overcast
12:53 AM 52.0 °F 48.9 °F 89% 30.11 in 10.0 mi ESE 9.2 mph - N/A   Overcast
1:32 AM 53.1 °F 50.0 °F 89% 30.08 in 10.0 mi ESE 10.4 mph - N/A   Overcast
1:53 AM 53.1 °F 50.0 °F 89% 30.10 in 10.0 mi ESE 9.2 mph - N/A   Overcast
2:20 AM 53.1 °F 50.0 °F 89% 30.06 in 10.0 mi ESE 9.2 mph - N/A   Overcast
2:30 AM 53.1 °F 50.0 °F 89% 30.05 in 10.0 mi ESE 9.2 mph - N/A   Overcast
2:53 AM 53.1 °F 50.0 °F 89% 30.07 in 10.0 mi East 6.9 mph - N/A   Overcast
3:17 AM 53.1 °F 51.1 °F 93% 30.03 in 10.0 mi East 8.1 mph - N/A   Overcast
3:35 AM 54.0 °F 51.1 °F 90% 30.03 in 10.0 mi East 9.2 mph - N/A   Overcast
3:53 AM 54.0 °F 52.0 °F 93% 30.05 in 10.0 mi East 8.1 mph - N/A   Overcast
4:53 AM 54.0 °F 52.0 °F 93% 30.02 in 10.0 mi ESE 9.2 mph - N/A   Overcast
5:53 AM 54.0 °F 53.1 °F 97% 30.01 in 9.0 mi East 6.9 mph - N/A   Overcast
6:10 AM 54.0 °F 53.1 °F 97% 29.99 in 9.0 mi East 8.1 mph - N/A   Overcast
6:48 AM 55.4 °F 53.6 °F 94% 30.00 in 9.0 mi East 5.8 mph - N/A   Overcast
6:53 AM 55.9 °F 54.0 °F 93% 30.02 in 8.0 mi East 8.1 mph - N/A   Overcast
7:07 AM 55.0 °F 54.0 °F 96% 29.99 in 8.0 mi ESE 10.4 mph - N/A   Overcast
7:15 AM 55.0 °F 54.0 °F 96% 29.99 in 8.0 mi ESE 9.2 mph - N/A   Overcast
7:53 AM 55.9 °F 55.0 °F 97% 30.02 in 6.0 mi ESE 8.1 mph - N/A   Overcast
8:21 AM 57.0 °F 55.9 °F 96% 29.99 in 7.0 mi ESE 8.1 mph - N/A   Overcast
8:53 AM 60.1 °F 57.0 °F 90% 30.01 in 8.0 mi ESE 9.2 mph - N/A   Overcast
9:05 AM 60.1 °F 57.9 °F 93% 29.99 in 8.0 mi SE 9.2 mph - N/A   Overcast
9:25 AM 61.0 °F 57.9 °F 90% 30.00 in 9.0 mi SE 8.1 mph - N/A   Overcast
9:53 AM 62.1 °F 60.1 °F 93% 30.03 in 9.0 mi SE 6.9 mph - N/A   Overcast
10:53 AM 66.0 °F 60.1 °F 81% 30.02 in 10.0 mi SSE 15.0 mph 25.3 mph N/A   Overcast
11:18 AM 66.0 °F 60.1 °F 81% 30.00 in 10.0 mi SSE 17.3 mph - N/A   Overcast
11:53 AM 66.9 °F 60.1 °F 79% 30.02 in 10.0 mi SSE 21.9 mph 26.5 mph N/A   Overcast
12:53 PM 69.1 °F 62.1 °F 78% 29.99 in 10.0 mi SSE 21.9 mph 29.9 mph N/A   Overcast
1:53 PM 69.1 °F 63.0 °F 81% 29.97 in 10.0 mi SSE 20.7 mph 32.2 mph N/A   Overcast
2:53 PM 70.0 °F 64.0 °F 81% 29.95 in 9.0 mi SSE 21.9 mph 31.1 mph 0.00 in   Overcast
3:13 PM 70.0 °F 64.0 °F 81% 29.92 in 10.0 mi SSE 21.9 mph 32.2 mph N/A   Overcast
3:51 PM 69.8 °F 62.6 °F 78% 29.91 in 9.0 mi SSE 23.0 mph 32.2 mph N/A   Overcast
3:53 PM 69.1 °F 63.0 °F 81% 29.93 in 9.0 mi SSE 20.7 mph 32.2 mph N/A   Overcast
4:43 PM 69.1 °F 64.0 °F 84% 29.87 in 9.0 mi SSE 21.9 mph 33.4 mph 0.00 in   Overcast
4:53 PM 69.1 °F 64.0 °F 84% 29.90 in 9.0 mi SSE 23.0 mph 36.8 mph 0.00 in   Overcast
5:18 PM 69.1 °F 64.0 °F 84% 29.87 in 9.0 mi SSE 24.2 mph 33.4 mph N/A   Overcast
5:44 PM 69.1 °F 64.0 °F 84% 29.86 in 9.0 mi SSE 18.4 mph 33.4 mph N/A   Overcast
5:53 PM 69.1 °F 64.0 °F 84% 29.88 in 9.0 mi SSE 17.3 mph 26.5 mph N/A   Overcast
6:53 PM 68.0 °F 64.0 °F 87% 29.87 in 8.0 mi SSE 20.7 mph 32.2 mph N/A   Overcast
7:16 PM 68.0 °F 64.0 °F 87% 29.85 in 8.0 mi South 15.0 mph 28.8 mph N/A   Overcast
7:43 PM 68.0 °F 64.9 °F 90% 29.85 in 8.0 mi South 15.0 mph 28.8 mph N/A   Overcast
7:53 PM 68.0 °F 64.9 °F 90% 29.88 in 7.0 mi SSE 16.1 mph 27.6 mph 0.01 in Rain Light Rain
8:15 PM 68.0 °F 64.9 °F 90% 29.86 in 8.0 mi South 16.1 mph 23.0 mph 0.00 in   Overcast
8:53 PM 68.0 °F 66.0 °F 93% 29.90 in 5.0 mi SSE 11.5 mph 23.0 mph 0.02 in Rain Light Rain
9:09 PM 66.9 °F 66.0 °F 97% 29.87 in 6.0 mi SSE 15.0 mph 26.5 mph 0.01 in Rain , Thunderstorm Light Thunderstorms and Rain
9:53 PM 66.9 °F 66.0 °F 97% 29.89 in 4.0 mi SSE 13.8 mph - 0.07 in Rain , Thunderstorm Light Rain
10:10 PM 68.0 °F 66.0 °F 93% 29.87 in 6.0 mi SSE 20.7 mph 28.8 mph 0.00 in Rain Light Rain
10:53 PM 68.0 °F 66.0 °F 93% 29.89 in 7.0 mi South 16.1 mph 27.6 mph 0.00 in Rain Light Rain
11:53 PM 69.1 °F 66.9 °F 93% 29.88 in 5.0 mi South 16.1 mph 24.2 mph 0.01 in Rain Light Rain